Regional Weather Roundup
Issued by NWS

Home | Current Version | Previous Version | Graphics & Text | Print | Product List | Glossary On
Versions: 1 2 3 4 5 6 7 8 9 10 11 12 13 14 15 16 17 18 19 20 21 22 23 24 25 26 27 28 29 30 31 32 33 34 35 36 37 38 39 40 41 42 43 44 45 46 47 48 49 50
000
ASUS45 KPSR 290000
RWRAZ

PRELIMINARY ARIZONA REGIONAL HOURLY WEATHER ROUNDUP
NATIONAL WEATHER SERVICE PHOENIX AZ
500 PM MST WED JAN 28 2015

NOTE: FAIR INDICATES FEW OR NO CLOUDS BELOW 12,000 FEET WITH NO
SIGNIFICANT WEATHER AND/OR OBSTRUCTIONS TO VISIBILITY.

AZZ001>003-036-290100-
NORTHWEST ARIZONA

CITY           SKY/WX    TMP DP  RH WIND       PRES   REMARKS
KINGMAN        CLOUDY    58  42  55 N7        30.17S
6HR MIN TEMP:  51; 6HR MAX TEMP:  62;

$$

AZZ004>008-015-016-018-290100-
NORTH CENTRAL ARIZONA

CITY           SKY/WX    TMP DP  RH WIND       PRES   REMARKS
GRAND CANYON   MOCLDY    47  30  51 NE8       30.24S
6HR MIN TEMP:  46; 6HR MAX TEMP:  53;

PRESCOTT       MOCLDY    57  26  30 N6        30.19R
6HR MIN TEMP:  49; 6HR MAX TEMP:  60;

FLAGSTAFF      NOT AVBL
PAYSON         PTCLDY    59  37  44 SW5       30.21R
$$

AZZ009>014-017-290100-
NORTHEAST ARIZONA

CITY           SKY/WX    TMP DP  RH WIND       PRES   REMARKS
WINSLOW        NOT AVBL
SAINT JOHNS    PTCLDY    58  25  28 NW9       30.18S
6HR MIN TEMP:  53; 6HR MAX TEMP:  61;

WINDOW ROCK    PTCLDY    54  18  24 CALM      30.22S
6HR MIN TEMP:  49; 6HR MAX TEMP:  57;

SHOW LOW       PTCLDY    54  32  43 CALM      30.24R
$$

AZZ023-290100-
GREATER PHOENIX AREA

CITY           SKY/WX    TMP DP  RH WIND       PRES   REMARKS
PHOENIX        CLOUDY    73  48  41 W9        30.05S
6HR MIN TEMP:  67; 6HR MAX TEMP:  75;

GLENDALE       MOCLDY    73  50  43 SW9       30.08R
DEER VALLEY    MOCLDY    72  44  36 W8        30.07R
6HR MIN TEMP:  64; 6HR MAX TEMP:  74;

SCOTTSDALE     CLOUDY    72  45  37 CALM      30.08S
6HR MIN TEMP:  63; 6HR MAX TEMP:  74;

MESA-FALCON    MOCLDY    70  46  43 W6        30.06S
MESA-GATEWAY   CLOUDY    72  48  43 NW9       30.09R
CHANDLER       MOCLDY    72  48  43 VRB5      30.07R
$$

AZZ027-028-290100-
SOUTHWEST MARICOPA COUNTY AND PINAL COUNTY

CITY           SKY/WX    TMP DP  RH WIND       PRES   REMARKS
CASA GRANDE    MOCLDY    70  48  46 NW5       30.07S
6HR MIN TEMP:  59; 6HR MAX TEMP:  72;

GILA BEND      CLOUDY    70  54  55 NW5       30.06F
6HR MIN TEMP:  63; 6HR MAX TEMP:  72;

$$

AZZ503-504-507>509-290100-
SOUTHEAST ARIZONA

CITY           SKY/WX    TMP DP  RH WIND       PRES   REMARKS
TUCSON         PTCLDY    74  47  38 N12       30.09S
6HR MIN TEMP:  62; 6HR MAX TEMP:  77;

DAVIS-MONTHAN  CLOUDY    73  43  35 NW10      30.07S
6HR MIN TEMP:  63; 6HR MAX TEMP:  74;

RYAN FIELD       N/A     73  41  31 NW20      30.08F
NOGALES        CLEAR     71  35  26 NW5       30.10S
6HR MIN TEMP:  61; 6HR MAX TEMP:  75;

SIERRA VISTA   MOCLDY    70  36  28 E5        30.14S
SAFFORD        CLEAR     72  33  24 NW5       30.08S
6HR MIN TEMP:  60; 6HR MAX TEMP:  74;

$$

AZZ020-021-025-026-031-290100-
SOUTHWEST ARIZONA

CITY           SKY/WX    TMP DP  RH WIND       PRES   REMARKS
YUMA           NOT AVBL
$$

CAZ031-033-041-043-047-048-061-290100-
SOUTHERN CALIFORNIA

CITY           SKY/WX    TMP DP  RH WIND       PRES   REMARKS
DOWNTOWN L.A.  CLOUDY    67  51  56 W3        30.07S
6HR MIN TEMP:  66; 6HR MAX TEMP:  75;

L.A. AIRPORT   CLOUDY    65  49  56 NW8       30.07F
6HR MIN TEMP:  63; 6HR MAX TEMP:  72;

SAN DIEGO      CLOUDY    71  50  47 NW6       30.06F
6HR MIN TEMP:  67; 6HR MAX TEMP:  72;

BURBANK        CLOUDY    71  45  39 NW3       30.07F
6HR MIN TEMP:  63; 6HR MAX TEMP:  72;

ONTARIO        CLOUDY    70  44  39 NW8       30.07S
6HR MIN TEMP:  62; 6HR MAX TEMP:  75;

RIVERSIDE      CLOUDY    70  44  39 NE9       30.08S
6HR MIN TEMP:  67; 6HR MAX TEMP:  73;

PALM SPRINGS   CLOUDY    73  42  32 VRB5      30.12S
6HR MIN TEMP:  65; 6HR MAX TEMP:  74;

EL CENTRO NAS  CLOUDY    70  51  51 NW5       30.08F
6HR MIN TEMP:  62; 6HR MAX TEMP:  72;

IMPERIAL       CLOUDY    70  51  51 NW3       30.08S
6HR MIN TEMP:  63; 6HR MAX TEMP:  72;

BLYTHE         CLOUDY    70  50  49 N9        30.09F
6HR MIN TEMP:  60; 6HR MAX TEMP:  71;

$$

NVZ020-UTZ003-290100-
SOUTHERN NEVADA-UTAH

CITY           SKY/WX    TMP DP  RH WIND       PRES   REMARKS
LAS VEGAS      NOT AVBL
SALT LAKE CITY MOCLDY    46  37  71 N7        30.30S
6HR MIN TEMP:  45; 6HR MAX TEMP:  50;

$$

NMZ009-TXZ055-290100-
NEW MEXICO-WEST TEXAS

CITY           SKY/WX    TMP DP  RH WIND       PRES   REMARKS
ALBUQUERQUE    MOCLDY    58  29  33 N15       30.18R
6HR MIN TEMP:  53; 6HR MAX TEMP:  63;

EL PASO        MOCLDY    70  38  31 W6        30.11R
6HR MIN TEMP:  60; 6HR MAX TEMP:  73;

$$


........................KEY........................
SKY/WX - SKY CONDITION/WEATHER
TMP    - TEMPERATURE IN FAHRENHEIT
DP     - DEW POINT IN FAHRENHEIT
RH     - RELATIVE HUMIDITY IN PERCENT
WIND   - DIRECTION AND SPEED IN MILES PER HOUR (MPH)
VRB    - VARIABLE WIND DIRECTION
PRES   - MEAN SEA LEVEL PRESSURE IN INCHES OF MERCURY
         F - FALLING PRESSURE   R - RISING PRESSURE
         S - STEADY PRESSURE
VSB    - VISIBILITY IN MILES
HX     - HEAT INDEX IN FAHRENHEIT
WCI    - WIND CHILL INDEX IN FAHRENHEIT
TC     - TEMPERATURE IN CELSIUS WHICH IS ALSO KNOWN AS
         TEMPERATURE IN CENTIGRADE
AFB    - AIR FORCE BASE
         LUKE AFB IS LUKE AIR FORCE BASE
         DAVIS-MONTHAN IS DAVIS-MONTHAN AIR FORCE BASE
NAS    - NAVAL AIR STATION
         EL CENTRO NAS IS EL CENTRO NAVAL AIR STATION
N/A    - NOT AVAILABLE


USA.gov is the U.S. government's official web portal to all federal, state and local government web resources and services.